Preview of NWS' New Version of Forecast
This preview is not operational and should not be used for support decisions.

Regional Weather Roundup (RWR)

Issued by National Weather Service (NWS)

                            
000
ASUS43 KLSX 182307
RWRMO 

WEATHER SUMMARY FOR MISSOURI
NATIONAL WEATHER SERVICE SPRINGFIELD MO
500 PM CST MON FEB 18 2019

NOTE: "FAIR" INDICATES FEW OR NO CLOUDS BELOW 12,000 FEET WITH NO
       SIGNIFICANT WEATHER AND/OR OBSTRUCTIONS TO VISIBILITY.
       CURRENT SKY AND/OR WEATHER CONDITIONS ARE NOT AVAILABLE FOR
       CHILLICOTHE AND FARMINGTON.

MOZ001>031-035>038-043-044-053-054-190000-
...NORTHERN AND WESTERN MISSOURI...
  
CITY           SKY/WX    TMP DP  RH WIND       PRES   REMARKS
KANSAS CTY INT MOCLDY    26  16  65 E3        30.49R                  
KANSAS C DTWN  CLOUDY    27  15  61 NE7       30.50S WCI  19          
LEE'S SUMMIT   CLEAR     24  16  71 NE9       30.48S WCI  14          
ST JOSEPH      PTCLDY    22  15  75 MISG      30.51S                  
CHILLICOTHE      N/A     27  17  66 CALM      30.51S                  
KIRKSVILLE     CLOUDY    27  17  66 NW3       30.49R                  
     
$$
MOZ066>068-077>081-088>096-101>105-190000-
...SOUTHWEST MISSOURI...
  
CITY           SKY/WX    TMP DP  RH WIND       PRES   REMARKS
SPRINGFIELD    CLOUDY    32  18  56 N10       30.41F WCI  24          
JOPLIN         CLOUDY    31  19  61 NE10      30.43F WCI  22          
BRANSON        CLOUDY    34  19  55 NE6       30.39F WCI  29          
               
$$
MOZ032>034-039>042-045>050-055>058-069>072-190000-
...CENTRAL MISSOURI...  
  
CITY           SKY/WX    TMP DP  RH WIND       PRES   REMARKS
COLUMBIA       CLOUDY    28  18  66 N7        30.49R WCI  21          
JEFFERSON CITY CLOUDY    30  18  60 NW5       30.51R WCI  25          
ROLLA          CLOUDY    27  16  63 N6        30.47R WCI  20          
SEDALIA        CLOUDY    26  18  71 NW8       30.50S WCI  18          
WHITEMAN AFB   CLOUDY    25  17  71 N7        30.30S WCI  17          
WARRENSBURG    CLOUDY    27  18  69 NE6       30.51R WCI  20          
OSAGE BEACH    CLEAR     26  18  71 VRB5      30.50R WCI  20          
               
$$
MOZ051-052-059>065-190000-
...EAST CENTRAL MISSOURI...
  
CITY           SKY/WX    TMP DP  RH WIND       PRES   REMARKS
ST LOUIS INTL  CLOUDY    30  19  63 NW6       30.49R WCI  24          
SPIRIT OF STL  CLOUDY    31  19  61 NW8       30.49R WCI  23          
ST CHARLES     CLOUDY    31  18  58 NW7       30.50R WCI  24          
                   
$$
MOZ072>076-082>087-097>100-106>115-190000-
...SOUTH CENTRAL AND SOUTHEAST MISSOURI...
  
CITY           SKY/WX    TMP DP  RH WIND       PRES   REMARKS
CAPE GIRARDEAU FAIR      33  22  63 NE10      30.47S WCI  25          
FARMINGTON     PTCLDY    32  21  64 N7        30.46R WCI  26          
POPLAR BLUFF   FAIR      37  26  64 E8        30.45R                  
WEST PLAINS    CLOUDY    34  22  61 N6        30.42R WCI  29          
                                       
$$